This is the latest recevied weather packets stored in our database for station/object K7AEL. If no packets are shown the sender has not sent any weather packets the latest 1 day(s).
| Time | Temp. | Humidity | Pressure | Rain* | Wind** | Luminosity | Snow |
|---|---|---|---|---|---|---|---|
| 1778045911 | 18.89° C | 39% | 1015.2 hPa | 0 mm | - | 0 W/m² | - |
| 1778045610 | 18.33° C | 44% | 1015.3 hPa | 0 mm | - | 0 W/m² | - |
| 1778045006 | 18.33° C | 41% | 1015.1 hPa | 0 mm | - | 0 W/m² | - |
| 1778044703 | 18.89° C | 40% | 1015.1 hPa | 0 mm | - | 0 W/m² | - |
| 1778044097 | 18.89° C | 38% | 1015.1 hPa | 0 mm | - | 0 W/m² | - |
| 1778043794 | 18.89° C | 38% | 1014.9 hPa | 0 mm | - | 0 W/m² | - |
| 1778043491 | 18.89° C | 39% | 1014.9 hPa | 0 mm | - | 0 W/m² | - |
| 1778042582 | 18.89° C | 40% | 1014.8 hPa | 0 mm | - | 0 W/m² | - |
| 1778042279 | 18.89° C | 40% | 1014.5 hPa | 0 mm | - | 0 W/m² | - |
| 1778041675 | 18.89° C | 40% | 1014.5 hPa | 0 mm | - | 0 W/m² | - |
| 1778041374 | 19.44° C | 39% | 1014.5 hPa | 0 mm | - | 0 W/m² | - |
| 1778040768 | 19.44° C | 39% | 1014.2 hPa | 0 mm | - | 0 W/m² | - |
| 1778040162 | 19.44° C | 39% | 1014.1 hPa | 0 mm | - | 0 W/m² | - |
| 1778039859 | 20° C | 39% | 1014.1 hPa | 0 mm | - | 0 W/m² | - |
| 1778039247 | 20° C | 37% | 1013.8 hPa | 0 mm | - | 0 W/m² | - |
| 1778038642 | 20° C | 41% | 1013.6 hPa | 0 mm | - | 0 W/m² | - |
| 1778038339 | 20° C | 41% | 1013.5 hPa | 0 mm | - | 0 W/m² | - |
| 1778037429 | 20° C | 41% | 1013.2 hPa | 0 mm | - | 0 W/m² | - |
| 1778036825 | 20.56° C | 38% | 1012.8 hPa | 0 mm | - | 0 W/m² | - |
| 1778036522 | 20° C | 37% | 1012.9 hPa | 0 mm | - | 0 W/m² | - |
| 1778035612 | 20° C | 37% | 1012.8 hPa | 0 mm | - | 0 W/m² | - |
| 1778035308 | 20.56° C | 37% | 1012.6 hPa | 0 mm | - | 0 W/m² | - |
| 1778035004 | 20.56° C | 37% | 1012.6 hPa | 0 mm | - | 0 W/m² | - |
| 1778034702 | 20.56° C | 36% | 1012.4 hPa | 0 mm | - | 0 W/m² | - |
| 1778034399 | 20.56° C | 36% | 1012.5 hPa | 0 mm | - | 0 W/m² | - |
* Rain latest hour (hover to see other rain measurements)
** Current wind speed in m/s (hover to see current wind gust speed)